Weather History for Grand Canyon, AZ

Change the Weather History Date:

Friday, November 16, 2012

  Actual Average Record
Temperature  
Mean Temperature 47 °F -  
Max Temperature 59 °F 50 °F 70 °F (1999)
Min Temperature 34 °F 19 °F 10 °F (1978)
Degree Days  
Heating Degree Days 18    
Moisture  
Dew Point 22 °F    
Average Humidity 42    
Maximum Humidity 70    
Minimum Humidity 27    
Precipitation  
Precipitation 0.00 in - - ()
Sea Level Pressure  
Sea Level Pressure 30.11 in    
Wind  
Wind Speed 4 mph (SSW)    
Max Wind Speed 14 mph    
Max Gust Speed 24 mph    
Visibility 10 miles    
Events      
Averages and records for this station are not official NWS values.
T = Trace of Precipitation, MM = Missing Value Source: NWS Daily Summary

Daily Weather History Graph

Daily Weather History Graph

Search for Another Location

Airport:

Trip Planner

Search our weather history database for the weather conditions in past years. The results will help you decide how hot, cold, wet, or windy it might be!

Date:

Astronomy

Nov. 16, 2012 Rise Set
Actual Time 7:06 AM MST 5:20 PM MST
Civil Twilight 6:39 AM MST 5:47 PM MST
Nautical Twilight 6:08 AM MST 6:18 PM MST
Astronomical Twilight 5:37 AM MST 6:48 PM MST
Moon 10:02 AM MST (11/16) 8:25 PM MST (11/16)
Length of Visible Light 11h 08m
Length of Day
10h 13m
Waxing Crescent, 12% of the Moon is Illuminated
Nov 16
Waxing Crescent
Nov 20
First Quarter
Nov 28
Full
Dec 6
Last Quarter
Dec 13
New

Hourly Weather History & Observations

Time (MST) Temp. Windchill Dew Point Humidity Pressure Visibility Wind Dir Wind Speed Gust Speed Precip Events Conditions
12:54 AM 35.1 °F - 8.1 °F 33% 30.15 in 10.0 mi Calm Calm - N/A   Overcast
1:54 AM 37.9 °F 35.5 °F 10.0 °F 32% 30.13 in 10.0 mi ENE 3.5 mph - N/A   Overcast
2:54 AM 39.9 °F 35.8 °F 16.0 °F 38% 30.12 in 10.0 mi ENE 5.8 mph - 0.00 in   Overcast
3:54 AM 39.0 °F - 17.1 °F 41% 30.12 in 10.0 mi Calm Calm - N/A   Overcast
4:54 AM 37.9 °F - 17.1 °F 43% 30.12 in 10.0 mi Calm Calm - N/A   Overcast
5:54 AM 37.0 °F - 17.1 °F 44% 30.13 in 10.0 mi Calm Calm - N/A   Overcast
6:54 AM 35.1 °F - 16.0 °F 46% 30.16 in 10.0 mi Calm Calm - N/A   Overcast
7:54 AM 37.0 °F - 17.1 °F 44% 30.17 in 10.0 mi Calm Calm - N/A   Overcast
8:54 AM 46.0 °F - 19.9 °F 35% 30.14 in 10.0 mi Calm Calm - N/A   Overcast
9:54 AM 53.1 °F - 24.1 °F 32% 30.14 in 10.0 mi South 8.1 mph - N/A   Overcast
10:54 AM 55.0 °F - 23.0 °F 29% 30.14 in 10.0 mi WSW 9.2 mph 17.3 mph N/A   Partly Cloudy
11:54 AM 57.0 °F - 25.0 °F 29% 30.12 in 10.0 mi SW 10.4 mph - N/A   Mostly Cloudy
12:54 PM 59.0 °F - 25.0 °F 27% 30.08 in 10.0 mi WSW 11.5 mph - N/A   Clear
1:54 PM 57.9 °F - 25.0 °F 28% 30.05 in 10.0 mi SW 11.5 mph 21.9 mph N/A   Scattered Clouds
2:54 PM 57.9 °F - 25.0 °F 28% 30.04 in 10.0 mi SW 13.8 mph 24.2 mph N/A   Scattered Clouds
3:54 PM 57.0 °F - 25.0 °F 29% 30.04 in 10.0 mi WSW 11.5 mph 20.7 mph N/A   Mostly Cloudy
4:54 PM 55.9 °F - 24.1 °F 29% 30.05 in 10.0 mi SW 9.2 mph - N/A   Overcast
5:54 PM 51.1 °F - 30.9 °F 46% 30.09 in 10.0 mi Variable 4.6 mph - N/A   Mostly Cloudy
6:54 PM 44.1 °F - 30.0 °F 58% 30.14 in 10.0 mi Calm Calm - N/A   Mostly Cloudy
7:54 PM 36.0 °F - 24.1 °F 62% 30.17 in 10.0 mi Calm Calm - N/A   Mostly Cloudy
8:54 PM 37.9 °F 35.5 °F 27.0 °F 65% 30.14 in 10.0 mi NE 3.5 mph - N/A   Overcast
9:54 PM 39.9 °F - 28.0 °F 63% 30.10 in 10.0 mi Calm Calm - N/A   Overcast
10:54 PM 45.0 °F 43.5 °F 30.0 °F 56% 30.09 in 10.0 mi South 3.5 mph - N/A   Overcast
11:54 PM 34.0 °F 31.0 °F 25.0 °F 70% 30.11 in 10.0 mi Variable 3.5 mph - N/A   Clear